Location: 5810 Zion Rd, Cleves, OH 45002, USA
(39.1922°N, 84.7113°W)
Time: 03:47:19
(UTC-05:00)

Courier 1B Rocket - Pass Details

Date: 11 December 2019
Orbit: 920 x 1202 km, 28.2° (Epoch: 20 January)

Event Time Altitude Azimuth Distance (km) Brightness Sun altitude
Rises 11:14:11 0° 258° (WSW) 3,628 7.9 25.2°
Reaches altitude 10° 11:17:52 10° 239° (WSW) 2,643 7.5 25.4°
Maximum altitude 11:21:39 17° 202° (SSW) 2,178 7.8 25.7°
Drops below altitude 10° 11:25:24 10° 164° (SSE) 2,599 9.2 25.9°
Sets 11:28:59 0° 144° (SE) 3,541 9.1 26.1°
